Location: �perlecques
(50.8057°N, 2.1521°E)
Time: 18:44:00
(UTC+00:00)

Cosmos 2151 - Pass Details

Date: 09 April 2020
Orbit: 582 x 600 km, 82.5° (Epoch: 23 May)

Event Time Altitude Azimuth Distance (km) Brightness Sun altitude
Rises 21:00:40 0° 350° (N) 2,819 7.3 -20.5°
Reaches altitude 10° 21:02:52 10° 352° (N) 1,914 6.3 -20.7°
Maximum altitude 21:07:06 79° 80° (E) 601 2.8 -21.2°
Enters shadow 21:07:38 66° 144° (SE) 643 2.8 -21.2°
